| time (UTC) | temp C | wind direction | speed KPH | gust KPH | rain 1hr cm | rain 24hr cm | rain mn cm | humidity % | barometer mb |
| 20260505071529 | 17 | 159 | 8.0 | 14.5 | 0.00 | 0.00 | 0.00 | 71 | 1005.8 |
| 20260505070017 | 17 | 146 | 4.8 | 17.7 | 0.00 | 0.00 | 0.00 | 71 | 1005.8 |
| 20260505064502 | 17 | 199 | 6.4 | 24.1 | 0.00 | 0.00 | 0.00 | 70 | 1005.9 |
| 20260505063008 | 17 | 183 | 6.4 | 17.7 | 0.00 | 0.00 | 0.00 | 70 | 1005.8 |
| 20260505061512 | 17 | 223 | 6.4 | 14.5 | 0.00 | 0.00 | 0.00 | 70 | 1005.7 |
| 20260505060016 | 17 | 174 | 9.7 | 16.1 | 0.00 | 0.00 | 0.00 | 70 | 1005.7 |
| 20260505054522 | 18 | 188 | 8.0 | 14.5 | 0.00 | 0.00 | 0.00 | 70 | 1005.9 |
| 20260505053007 | 18 | 169 | 8.0 | 17.7 | 0.00 | 0.00 | 0.00 | 70 | 1006.3 |
| 20260505051530 | 17 | 166 | 8.0 | 14.5 | 0.00 | 0.00 | 0.00 | 70 | 1005.8 |
| 20260505041506 | 18 | 164 | 11.3 | 20.9 | 0.00 | 0.00 | 0.00 | 69 | 1006.4 |
| 20260505040015 | 18 | 139 | 8.0 | 17.7 | 0.00 | 0.00 | 0.00 | 68 | 1006.6 |
| 20260505034519 | 18 | 198 | 11.3 | 17.7 | 0.00 | 0.00 | 0.00 | 67 | 1006.6 |
| 20260505033021 | 18 | 195 | 6.4 | 16.1 | 0.00 | 0.00 | 0.00 | 67 | 1006.9 |
| 20260505031506 | 18 | 180 | 8.0 | 16.1 | 0.00 | 0.00 | 0.00 | 66 | 1006.8 |
| 20260505030011 | 19 | 178 | 6.4 | 11.3 | 0.00 | 0.00 | 0.00 | 65 | 1006.9 |
| 20260505024518 | 19 | 173 | 3.2 | 17.7 | 0.00 | 0.00 | 0.00 | 64 | 1006.9 |
| 20260505023021 | 20 | 193 | 6.4 | 16.1 | 0.00 | 0.00 | 0.00 | 63 | 1006.5 |
| 20260505021523 | 20 | 179 | 6.4 | 12.9 | 0.00 | 0.00 | 0.00 | 62 | 1006.3 |
| 20260505014514 | 20 | 164 | 6.4 | 11.3 | 0.00 | 0.00 | 0.00 | 60 | 1005.8 |
| 20260505013021 | 21 | 175 | 4.8 | 16.1 | 0.00 | 0.00 | 0.00 | 59 | 1005.6 |
| 20260505011522 | 21 | 215 | 1.6 | 9.7 | 0.00 | 0.00 | 0.00 | 58 | 1005.6 |
| 20260505010026 | 21 | 171 | 3.2 | 9.7 | 0.00 | 0.00 | 0.00 | 56 | 1005.3 |
| 20260505004513 | 22 | 212 | 4.8 | 8.0 | 0.00 | 0.00 | 0.00 | 53 | 1005.3 |
| 20260505003021 | 22 | 189 | 4.8 | 11.3 | 0.00 | 0.00 | 0.00 | 51 | 1005.2 |
| 20260505001524 | 23 | 205 | 8.0 | 16.1 | 0.00 | 0.00 | 0.00 | 51 | 1005.2 |
| 20260505000025 | 23 | 178 | 9.7 | 20.9 | 0.00 | 0.00 | 0.00 | 50 | 1005.2 |
| 20260504233018 | 25 | 169 | 6.4 | 19.3 | 0.00 | 0.00 | 0.00 | 48 | 1005.3 |
| 20260504231524 | 25 | 185 | 11.3 | 17.7 | 0.00 | 0.00 | 0.00 | 48 | 1005.4 |
| 20260504230026 | 25 | 163 | 9.7 | 25.7 | 0.00 | 0.00 | 0.00 | 48 | 1005.4 |
| 20260504224528 | 25 | 138 | 12.9 | 27.4 | 0.00 | 0.00 | 0.00 | 45 | 1005.4 |
| 20260504220022 | 26 | 211 | 11.3 | 24.1 | 0.00 | 0.00 | 0.00 | 47 | 1005.4 |
| 20260504214526 | 25 | 198 | 11.3 | 27.4 | 0.00 | 0.00 | 0.00 | 45 | 1005.5 |
| 20260504213027 | 26 | 210 | 6.4 | 30.6 | 0.00 | 0.00 | 0.00 | 46 | 1005.6 |
| 20260504211514 | 26 | 163 | 11.3 | 24.1 | 0.00 | 0.00 | 0.00 | 45 | 1005.7 |
| 20260504210003 | 26 | 157 | 11.3 | 27.4 | 0.00 | 0.00 | 0.00 | 45 | 1005.8 |
| 20260504204509 | 26 | 221 | 14.5 | 27.4 | 0.00 | 0.00 | 0.00 | 45 | 1006.1 |
| 20260504200017 | 26 | 223 | 11.3 | 27.4 | 0.00 | 0.00 | 0.00 | 46 | 1006.7 |
| 20260504194508 | 26 | 159 | 12.9 | 27.4 | 0.00 | 0.00 | 0.00 | 48 | 1006.8 |
| 20260504191523 | 25 | 261 | 11.3 | 29.0 | 0.00 | 0.00 | 0.00 | 48 | 1007.0 |
| 20260504190019 | 25 | 153 | 11.3 | 30.6 | 0.00 | 0.00 | 0.00 | 49 | 1007.0 |
| 20260504184508 | 25 | 209 | 14.5 | 27.4 | 0.00 | 0.00 | 0.00 | 48 | 1007.2 |
| 20260504183010 | 25 | 256 | 16.1 | 30.6 | 0.00 | 0.00 | 0.00 | 49 | 1007.1 |
| 20260504181515 | 25 | 220 | 14.5 | 32.2 | 0.00 | 0.00 | 0.00 | 49 | 1007.0 |
| 20260504180021 | 25 | 204 | 6.4 | 27.4 | 0.00 | 0.00 | 0.00 | 52 | 1007.0 |
| 20260504174522 | 25 | 203 | 14.5 | 27.4 | 0.00 | 0.00 | 0.00 | 49 | 1007.1 |
| 20260504173010 | 24 | 219 | 12.9 | 32.2 | 0.00 | 0.00 | 0.00 | 48 | 1007.1 |
| 20260504171513 | 24 | 227 | 16.1 | 27.4 | 0.00 | 0.00 | 0.00 | 49 | 1007.1 |
| 20260504081518 | 16 | 165 | 6.4 | 12.9 | 0.00 | 0.00 | 0.00 | 64 | 1010.1 |